Regional Weather Roundup
Issued by NWS

Home | Current Version | Previous Version | Text Only | Print | Product List | Glossary On
Versions: 1 2 3 4 5 6 7 8 9 10 11 12 13 14 15 16 17 18 19 20 21 22 23 24 25 26 27 28 29 30 31 32 33 34 35 36 37 38 39 40 41 42 43 44 45 46 47 48 49 50
000
ASUS43 KBIS 260301
RWRND

NORTH DAKOTA REGIONAL WEATHER ROUNDUP
NATIONAL WEATHER SERVICE BISMARCK ND
1000 PM CDT MON MAY 25 2015

NOTE: "FAIR" INDICATES FEW OR NO CLOUDS BELOW 12,000 FEET WITH NO
SIGNIFICANT WEATHER AND/OR OBSTRUCTIONS TO VISIBILITY.


NDZ001>003-009>011-017-260400-
NORTHWEST NORTH DAKOTA

CITY           SKY/WX    TMP DP  RH WIND       PRES   REMARKS
WILLISTON      PTCLDY    59  48  67 SW8       29.88R
MINOT          CLEAR     67  45  45 SW9       29.81R
MINOT AFB      CLEAR     64  47  55 W7        29.80R
$$

NDZ018>021-031>035-040>046-260400-
SOUTHWEST NORTH DAKOTA

CITY           SKY/WX    TMP DP  RH WIND       PRES   REMARKS
BISMARCK       PTCLDY    61  54  77 SW6       29.86R
DICKINSON      CLEAR     53  45  74 SW8       29.89R
GARRISON         N/A     63  52  67 W10       29.84S
HETTINGER ARPT CLOUDY    56  50  80 CALM      29.93R
$$

NDZ004>008-012>016-024-026-027-054-260400-
NORTHEAST NORTH DAKOTA

CITY           SKY/WX    TMP DP  RH WIND       PRES   REMARKS
GRAND FORKS    PTCLDY    59  49  69 S8        29.79R
GRND FRKS AFB  PTCLDY    62  48  59 SW9       29.80R
DEVILS LAKE    PTCLDY    64  45  48 CALM      29.79R
$$

NDZ022-023-025-028>030-036>039-047>053-260400-
SOUTHEAST NORTH DAKOTA

CITY           SKY/WX    TMP DP  RH WIND       PRES   REMARKS
FARGO          PTCLDY    57  53  86 CALM      29.82S
JAMESTOWN      CLEAR     61  55  81 S10       29.82S
$$




USA.gov is the U.S. government's official web portal to all federal, state and local government web resources and services.